Total_Precipitation_Accumulation
-0.22 -0.09 -0.05 -0.02 -0.02 -0.04 -0.11 -0.09 -0.14 -0.14 -0.03 -0.04 -0.12 -0.12 -0.20 -0.23 -0.25 -0.25 -0.36 -0.43 -0.43 -0.52 -0.54 -0.62 -0.62 -0.74 -0.76 -0.93 -1.11 -1.11 -1.03 -0.84 -0.55 -0.55 -0.34 -0.18 -0.09 -0.09 -0.09 -0.02 -0.02 0.05 0.10 0.23 0.23 0.24 0.26 0.29 0.29 0.30 0.32 0.33 0.30 0.30 0.31 0.36 0.36 0.38 0.35 0.36 0.36 0.33 0.28 0.22 0.22 0.15 0.12 0.08 0.03 0.03 0.02 0.01 0.00 0.00 0.00 0.00 0.00 0.00 0.01 0.00 0.00 0.01 0.01 0.01 0.01 0.01
-0.28 -0.26 -0.12 -0.05 -0.05 -0.02 -0.04 -0.04 -0.10 -0.10 -0.22 -0.06 -0.10 -0.10 -0.15 -0.22 -0.27 -0.27 -0.33 -0.37 -0.37 -0.40 -0.46 -0.54 -0.54 -0.62 -0.64 -0.77 -0.87 -0.87 -0.95 -0.82 -0.61 -0.61 -0.36 -0.23 -0.11 -0.11 -0.05 0.06 0.06 0.12 0.17 0.38 0.38 0.31 0.30 0.32 0.32 0.30 0.30 0.32 0.28 0.28 0.25 0.25 0.25 0.29 0.27 0.33 0.33 0.27 0.24 0.19 0.19 0.13 0.10 0.06 0.05 0.05 0.03 0.02 0.01 0.01 0.01 0.00 0.00 0.00 0.00 0.00 0.00 0.00 0.00 0.00 0.00 0.00
-0.15 -0.25 -0.20 -0.08 -0.08 -0.04 -0.03 -0.05 -0.06 -0.06 -0.17 -0.28 -0.25 -0.25 -0.14 -0.20 -0.28 -0.28 -0.34 -0.37 -0.37 -0.38 -0.34 -0.38 -0.38 -0.54 -0.54 -0.62 -0.71 -0.71 -0.78 -0.66 -0.67 -0.67 -0.57 -0.37 -0.08 -0.08 0.03 0.26 0.26 0.32 0.35 0.49 0.49 0.46 0.40 0.39 0.39 0.32 0.27 0.28 0.27 0.27 0.23 0.23 0.23 0.25 0.22 0.24 0.24 0.21 0.22 0.19 0.19 0.09 0.08 0.04 0.04 0.04 0.03 0.01 0.01 0.01 0.01 0.01 0.01 0.01 0.00 0.00 0.00 0.00 0.00 0.00 0.00 0.00
0.03 -0.11 -0.08 -0.15 -0.15 -0.11 -0.08 -0.07 -0.06 -0.06 -0.11 -0.22 -0.25 -0.25 -0.29 -0.23 -0.27 -0.27 -0.30 -0.33 -0.33 -0.33 -0.28 -0.29 -0.29 -0.33 -0.32 -0.49 -0.55 -0.55 -0.62 -0.52 -0.52 -0.52 -0.50 -0.28 -0.14 -0.14 0.03 0.28 0.28 0.51 0.51 0.57 0.57 0.51 0.44 0.40 0.40 0.34 0.30 0.26 0.24 0.24 0.23 0.21 0.21 0.20 0.18 0.19 0.19 0.16 0.16 0.15 0.15 0.08 0.06 0.05 0.02 0.02 0.02 0.01 0.01 0.01 0.00 0.00 0.00 0.00 0.00 0.00 0.00 0.00 0.00 0.00 0.00 0.00
0.22 0.09 0.10 -0.04 -0.04 -0.12 -0.14 -0.14 -0.07 -0.07 -0.09 -0.15 -0.27 -0.27 -0.36 -0.38 -0.30 -0.30 -0.28 -0.29 -0.29 -0.28 -0.23 -0.22 -0.22 -0.24 -0.23 -0.30 -0.40 -0.40 -0.45 -0.38 -0.37 -0.37 -0.35 -0.14 -0.03 -0.03 0.11 0.26 0.26 0.43 0.57 0.59 0.59 0.58 0.49 0.45 0.45 0.36 0.36 0.28 0.23 0.23 0.22 0.20 0.20 0.17 0.15 0.15 0.15 0.16 0.12 0.10 0.10 0.04 0.04 0.03 0.01 0.01 0.01 0.01 0.01 0.01 0.00 0.00 0.00 0.00 0.00 0.00 0.00 0.00 0.00 0.00 0.00 0.00
0.28 0.28 0.28 0.14 0.14 -0.04 -0.15 -0.12 -0.09 -0.09 -0.08 -0.16 -0.29 -0.29 -0.38 -0.43 -0.46 -0.46 -0.41 -0.32 -0.32 -0.34 -0.32 -0.19 -0.19 -0.19 -0.17 -0.22 -0.31 -0.31 -0.39 -0.31 -0.27 -0.27 -0.23 -0.00 0.04 0.04 0.15 0.25 0.25 0.37 0.49 0.55 0.55 0.59 0.61 0.60 0.60 0.58 0.48 0.37 0.28 0.28 0.30 0.23 0.23 0.18 0.19 0.15 0.15 0.13 0.11 0.08 0.08 0.06 0.02 0.01 0.01 0.01 0.01 0.00 0.00 0.00 0.00 0.00 0.00 0.00 0.01 0.00 0.00 0.01 0.00 0.00 0.00 0.00
0.32 0.36 0.43 0.30 0.30 0.10 -0.06 -0.05 -0.08 -0.08 -0.07 -0.14 -0.22 -0.22 -0.37 -0.42 -0.54 -0.54 -0.55 -0.47 -0.47 -0.37 -0.35 -0.26 -0.26 -0.19 -0.19 -0.17 -0.22 -0.22 -0.30 -0.22 -0.15 -0.15 -0.08 0.07 0.08 0.08 0.11 0.18 0.18 0.32 0.44 0.47 0.47 0.59 0.60 0.57 0.57 0.57 0.54 0.49 0.46 0.46 0.41 0.32 0.32 0.25 0.27 0.21 0.21 0.16 0.15 0.10 0.10 0.10 0.06 0.03 0.04 0.04 0.02 0.03 0.03 0.03 0.02 0.03 0.01 0.01 0.02 0.01 0.01 0.00 0.00 0.00 0.00 0.00
0.52 0.44 0.47 0.51 0.51 0.55 0.47 0.44 0.14 0.14 -0.05 -0.12 -0.17 -0.17 -0.28 -0.37 -0.40 -0.40 -0.47 -0.52 -0.52 -0.56 -0.58 -0.45 -0.45 -0.31 -0.29 -0.23 -0.18 -0.18 -0.14 -0.11 -0.02 -0.02 0.04 0.16 0.15 0.15 0.16 0.19 0.19 0.23 0.25 0.25 0.25 0.28 0.34 0.34 0.34 0.42 0.51 0.50 0.46 0.46 0.46 0.41 0.41 0.38 0.32 0.29 0.29 0.25 0.18 0.16 0.16 0.10 0.09 0.09 0.05 0.05 0.05 0.03 0.03 0.03 0.03 0.03 0.02 0.02 0.02 0.02 0.02 0.02 0.02 0.02 0.02 0.01
0.39 0.49 0.39 0.40 0.40 0.51 0.51 0.45 0.38 0.38 0.32 0.11 -0.13 -0.13 -0.19 -0.30 -0.33 -0.33 -0.47 -0.57 -0.57 -0.60 -0.58 -0.61 -0.61 -0.40 -0.31 -0.28 -0.22 -0.22 -0.17 -0.14 -0.03 -0.03 0.05 0.09 0.14 0.14 0.19 0.23 0.23 0.23 0.25 0.27 0.27 0.28 0.29 0.32 0.32 0.35 0.42 0.44 0.50 0.50 0.48 0.49 0.49 0.43 0.35 0.29 0.29 0.23 0.16 0.13 0.13 0.08 0.07 0.06 0.04 0.04 0.04 0.03 0.03 0.03 0.03 0.02 0.03 0.03 0.02 0.02 0.02 0.02 0.01 0.01 0.01 0.01
0.34 0.40 0.41 0.39 0.39 0.39 0.45 0.38 0.38 0.38 0.42 0.33 0.26 0.26 -0.02 -0.23 -0.31 -0.31 -0.43 -0.52 -0.52 -0.54 -0.59 -0.64 -0.64 -0.61 -0.50 -0.37 -0.32 -0.32 -0.22 -0.15 -0.06 -0.06 0.02 0.08 0.14 0.14 0.19 0.23 0.23 0.26 0.27 0.31 0.31 0.30 0.31 0.34 0.34 0.36 0.38 0.41 0.45 0.45 0.45 0.45 0.45 0.43 0.41 0.39 0.39 0.32 0.26 0.18 0.18 0.12 0.05 0.04 0.03 0.03 0.03 0.03 0.02 0.02 0.02 0.01 0.02 0.02 0.01 0.01 0.01 0.01 0.01 0.01 0.01 0.00
0.33 0.31 0.33 0.49 0.49 0.45 0.43 0.33 0.33 0.33 0.43 0.46 0.44 0.44 0.19 -0.08 -0.17 -0.17 -0.29 -0.44 -0.44 -0.51 -0.57 -0.62 -0.62 -0.60 -0.48 -0.40 -0.32 -0.32 -0.30 -0.30 -0.18 -0.18 0.01 0.12 0.18 0.18 0.22 0.29 0.29 0.27 0.29 0.34 0.34 0.35 0.33 0.35 0.35 0.35 0.36 0.39 0.43 0.43 0.41 0.42 0.42 0.42 0.38 0.37 0.37 0.34 0.29 0.21 0.21 0.12 0.10 0.05 0.05 0.05 0.03 0.02 0.01 0.01 0.01 0.02 0.01 0.01 0.02 0.01 0.01 0.01 0.01 0.00 0.00 0.01
0.25 0.21 0.26 0.34 0.34 0.49 0.51 0.39 0.32 0.32 0.43 0.54 0.39 0.39 0.30 0.08 0.02 0.02 -0.20 -0.33 -0.33 -0.37 -0.34 -0.49 -0.49 -0.51 -0.37 -0.34 -0.29 -0.29 -0.28 -0.25 -0.21 -0.21 -0.08 0.04 0.13 0.13 0.23 0.34 0.34 0.36 0.33 0.42 0.42 0.39 0.36 0.36 0.36 0.36 0.36 0.35 0.36 0.36 0.38 0.35 0.35 0.36 0.30 0.33 0.33 0.32 0.26 0.23 0.23 0.17 0.15 0.10 0.11 0.11 0.06 0.03 0.06 0.06 0.03 0.05 0.03 0.03 0.02 0.03 0.03 0.02 0.03 0.02 0.02 0.05
0.23 0.25 0.25 0.27 0.27 0.32 0.40 0.31 0.34 0.34 0.32 0.18 0.17 0.17 0.19 0.17 0.20 0.20 0.04 -0.15 -0.15 -0.26 -0.19 -0.30 -0.30 -0.37 -0.24 -0.21 -0.21 -0.21 -0.22 -0.14 -0.14 -0.14 -0.07 0.03 0.11 0.11 0.18 0.20 0.20 0.30 0.35 0.34 0.34 0.41 0.38 0.38 0.38 0.35 0.35 0.33 0.32 0.32 0.33 0.30 0.30 0.30 0.25 0.25 0.25 0.27 0.22 0.23 0.23 0.22 0.20 0.18 0.16 0.16 0.12 0.09 0.11 0.11 0.07 0.09 0.06 0.06 0.05 0.07 0.07 0.05 0.08 0.06 0.06 0.09
0.42 0.35 0.28 0.25 0.25 0.20 0.12 0.13 0.19 0.19 0.20 0.10 0.12 0.12 0.10 0.10 0.35 0.35 0.36 0.16 0.16 -0.04 0.01 -0.11 -0.11 -0.22 -0.06 -0.12 -0.12 -0.12 -0.11 -0.09 -0.06 -0.06 -0.05 0.03 0.06 0.06 0.11 0.13 0.13 0.23 0.29 0.30 0.30 0.33 0.35 0.27 0.27 0.36 0.35 0.31 0.32 0.32 0.31 0.28 0.28 0.26 0.22 0.20 0.20 0.21 0.17 0.18 0.18 0.20 0.17 0.18 0.14 0.14 0.14 0.14 0.12 0.12 0.13 0.12 0.12 0.12 0.11 0.11 0.11 0.11 0.11 0.11 0.11 0.10
0.41 0.32 0.30 0.25 0.25 0.19 0.08 0.06 0.06 0.06 0.08 0.11 0.14 0.14 0.20 0.23 0.33 0.33 0.42 0.54 0.54 0.19 0.25 0.11 0.11 0.00 0.13 0.06 0.00 0.00 -0.03 -0.08 -0.11 -0.11 -0.07 0.03 0.07 0.07 0.04 0.11 0.11 0.18 0.25 0.26 0.26 0.30 0.26 0.22 0.22 0.28 0.32 0.30 0.32 0.32 0.33 0.31 0.31 0.28 0.25 0.22 0.22 0.19 0.17 0.14 0.14 0.15 0.13 0.15 0.12 0.12 0.12 0.12 0.10 0.10 0.11 0.09 0.10 0.10 0.11 0.10 0.10 0.11 0.09 0.10 0.10 0.11
0.36 0.33 0.27 0.19 0.19 0.14 0.07 0.05 0.08 0.08 0.06 0.16 0.21 0.21 0.30 0.38 0.23 0.23 0.36 0.40 0.40 0.40 0.41 0.48 0.48 0.42 0.32 0.17 0.10 0.10 0.02 0.00 -0.10 -0.10 -0.06 0.09 0.12 0.12 0.07 0.06 0.06 0.09 0.16 0.16 0.16 0.23 0.25 0.25 0.25 0.22 0.27 0.23 0.26 0.26 0.30 0.29 0.29 0.28 0.25 0.23 0.23 0.20 0.18 0.16 0.16 0.13 0.14 0.12 0.12 0.12 0.10 0.10 0.08 0.08 0.07 0.07 0.06 0.06 0.09 0.08 0.08 0.09 0.07 0.08 0.08 0.09
0.34 0.33 0.28 0.21 0.21 0.14 0.09 0.07 0.10 0.10 0.12 0.19 0.19 0.19 0.21 0.22 0.20 0.20 0.24 0.30 0.30 0.36 0.36 0.41 0.41 0.58 0.45 0.45 0.27 0.27 0.15 0.14 0.02 0.02 -0.01 0.19 0.18 0.18 0.12 0.12 0.12 0.12 0.13 0.15 0.15 0.22 0.26 0.27 0.27 0.28 0.26 0.21 0.18 0.18 0.22 0.25 0.25 0.27 0.25 0.23 0.23 0.21 0.19 0.17 0.17 0.15 0.15 0.13 0.13 0.13 0.11 0.09 0.08 0.08 0.07 0.07 0.06 0.06 0.06 0.06 0.06 0.07 0.06 0.06 0.06 0.06
0.36 0.33 0.30 0.27 0.27 0.18 0.18 0.15 0.14 0.14 0.16 0.22 0.23 0.23 0.22 0.19 0.24 0.24 0.23 0.30 0.30 0.45 0.29 0.36 0.36 0.39 0.36 0.46 0.39 0.39 0.22 0.40 0.35 0.35 0.21 0.35 0.32 0.32 0.17 0.19 0.19 0.15 0.13 0.15 0.15 0.19 0.24 0.24 0.24 0.26 0.26 0.21 0.20 0.20 0.19 0.20 0.20 0.22 0.23 0.20 0.20 0.21 0.18 0.19 0.19 0.18 0.17 0.15 0.13 0.13 0.12 0.10 0.09 0.09 0.07 0.07 0.06 0.06 0.06 0.06 0.06 0.06 0.05 0.05 0.05 0.05
0.40 0.33 0.33 0.33 0.33 0.28 0.26 0.21 0.19 0.19 0.20 0.19 0.26 0.26 0.37 0.31 0.33 0.33 0.26 0.22 0.22 0.25 0.21 0.27 0.27 0.25 0.30 0.34 0.39 0.39 0.32 0.59 0.64 0.64 0.49 0.51 0.45 0.45 0.33 0.32 0.32 0.28 0.22 0.19 0.19 0.16 0.22 0.26 0.26 0.26 0.25 0.26 0.23 0.23 0.20 0.21 0.21 0.20 0.21 0.19 0.19 0.18 0.16 0.17 0.17 0.17 0.15 0.15 0.15 0.15 0.12 0.12 0.10 0.10 0.09 0.08 0.06 0.06 0.05 0.04 0.04 0.05 0.05 0.04 0.04 0.04
0.40 0.38 0.34 0.32 0.32 0.30 0.37 0.32 0.28 0.28 0.22 0.23 0.29 0.29 0.37 0.38 0.38 0.38 0.29 0.23 0.23 0.23 0.24 0.25 0.25 0.23 0.24 0.27 0.45 0.45 0.43 0.82 0.94 0.94 0.72 0.65 0.54 0.54 0.40 0.38 0.38 0.36 0.28 0.26 0.26 0.21 0.20 0.30 0.30 0.31 0.31 0.36 0.32 0.32 0.28 0.29 0.29 0.21 0.19 0.19 0.19 0.17 0.16 0.16 0.16 0.15 0.14 0.13 0.13 0.13 0.10 0.10 0.07 0.07 0.07 0.06 0.04 0.04 0.04 0.03 0.03 0.03 0.04 0.02 0.02 0.03
0.40 0.38 0.34 0.34 0.34 0.37 0.38 0.37 0.36 0.36 0.35 0.46 0.46 0.46 0.34 0.36 0.35 0.35 0.30 0.28 0.28 0.26 0.33 0.32 0.32 0.25 0.26 0.36 0.56 0.56 0.56 0.58 0.93 0.93 0.99 0.89 0.64 0.64 0.48 0.42 0.42 0.39 0.33 0.35 0.35 0.29 0.29 0.39 0.39 0.38 0.38 0.44 0.39 0.39 0.33 0.35 0.35 0.30 0.25 0.24 0.24 0.21 0.20 0.17 0.17 0.16 0.14 0.13 0.12 0.12 0.10 0.09 0.07 0.07 0.06 0.05 0.03 0.03 0.03 0.02 0.02 0.02 0.02 0.01 0.01 0.02
0.41 0.37 0.37 0.39 0.39 0.40 0.40 0.39 0.40 0.40 0.43 0.59 0.63 0.63 0.53 0.44 0.44 0.44 0.37 0.41 0.41 0.35 0.38 0.31 0.31 0.26 0.32 0.46 0.61 0.61 0.56 0.56 0.70 0.70 0.87 0.93 0.83 0.83 0.74 0.57 0.57 0.49 0.47 0.53 0.53 0.44 0.38 0.50 0.50 0.43 0.41 0.43 0.44 0.44 0.40 0.37 0.37 0.33 0.29 0.26 0.26 0.22 0.20 0.19 0.19 0.16 0.16 0.14 0.12 0.12 0.11 0.09 0.08 0.08 0.06 0.04 0.04 0.04 0.03 0.02 0.02 0.02 0.01 0.01 0.01 0.01
0.41 0.36 0.39 0.38 0.38 0.39 0.42 0.39 0.39 0.39 0.45 0.51 0.55 0.55 0.54 0.51 0.47 0.47 0.46 0.47 0.47 0.46 0.43 0.33 0.33 0.27 0.46 0.61 0.70 0.70 0.60 0.53 0.57 0.57 0.84 0.84 0.81 0.81 0.71 0.57 0.57 0.59 0.62 0.61 0.61 0.52 0.44 0.58 0.58 0.56 0.48 0.45 0.44 0.44 0.43 0.41 0.41 0.38 0.34 0.33 0.33 0.25 0.21 0.21 0.21 0.18 0.17 0.15 0.13 0.13 0.11 0.10 0.08 0.08 0.07 0.05 0.05 0.05 0.04 0.02 0.02 0.02 0.01 0.01 0.01 0.00
0.49 0.46 0.38 0.34 0.34 0.37 0.44 0.44 0.39 0.39 0.44 0.44 0.48 0.48 0.50 0.48 0.52 0.52 0.53 0.49 0.49 0.45 0.44 0.42 0.42 0.39 0.80 0.71 0.81 0.81 0.65 0.54 0.50 0.50 0.57 0.68 0.71 0.71 0.63 0.58 0.58 0.72 0.70 0.66 0.66 0.56 0.53 0.66 0.66 0.62 0.54 0.51 0.46 0.46 0.43 0.42 0.42 0.40 0.37 0.35 0.35 0.32 0.28 0.28 0.28 0.24 0.23 0.19 0.15 0.15 0.13 0.11 0.09 0.09 0.08 0.07 0.07 0.07 0.05 0.04 0.04 0.04 0.03 0.03 0.03 0.02
0.50 0.48 0.41 0.35 0.35 0.37 0.37 0.38 0.38 0.38 0.39 0.36 0.41 0.41 0.45 0.47 0.47 0.47 0.48 0.46 0.46 0.62 0.64 0.76 0.76 0.90 0.82 0.76 0.75 0.75 0.56 0.45 0.46 0.46 0.55 0.52 0.62 0.62 0.66 0.58 0.58 0.58 0.73 0.75 0.75 0.66 0.64 0.72 0.72 0.66 0.59 0.60 0.55 0.55 0.47 0.44 0.44 0.42 0.39 0.38 0.38 0.34 0.31 0.30 0.30 0.27 0.24 0.20 0.16 0.16 0.15 0.12 0.10 0.10 0.10 0.08 0.08 0.08 0.06 0.05 0.05 0.04 0.04 0.03 0.03 0.02
0.40 0.45 0.44 0.39 0.39 0.37 0.39 0.38 0.37 0.37 0.36 0.37 0.37 0.37 0.38 0.40 0.40 0.40 0.48 0.53 0.53 0.58 0.79 0.88 0.88 0.89 0.62 0.62 0.61 0.61 0.59 0.43 0.40 0.40 0.45 0.47 0.57 0.57 0.63 0.55 0.55 0.55 0.70 0.82 0.82 0.71 0.65 0.80 0.80 0.78 0.69 0.64 0.63 0.63 0.58 0.50 0.50 0.47 0.44 0.42 0.42 0.40 0.37 0.35 0.35 0.32 0.28 0.25 0.21 0.21 0.18 0.16 0.13 0.13 0.13 0.11 0.10 0.10 0.08 0.07 0.07 0.06 0.05 0.04 0.04 0.03
0.33 0.39 0.43 0.43 0.43 0.40 0.47 0.45 0.43 0.43 0.38 0.43 0.39 0.39 0.36 0.36 0.44 0.44 0.51 0.54 0.54 0.44 0.49 0.60 0.60 0.66 0.57 0.56 0.55 0.55 0.60 0.42 0.36 0.36 0.37 0.45 0.53 0.53 0.58 0.48 0.48 0.53 0.73 0.88 0.88 0.79 0.76 0.80 0.80 0.78 0.71 0.60 0.62 0.62 0.57 0.51 0.51 0.47 0.45 0.41 0.41 0.39 0.37 0.33 0.33 0.32 0.27 0.25 0.21 0.21 0.18 0.16 0.14 0.14 0.13 0.11 0.10 0.10 0.08 0.07 0.07 0.05 0.04 0.03 0.03 0.02
0.30 0.33 0.37 0.39 0.39 0.37 0.40 0.44 0.47 0.47 0.47 0.48 0.44 0.44 0.40 0.38 0.53 0.53 0.48 0.44 0.44 0.36 0.35 0.42 0.42 0.52 0.50 0.53 0.55 0.55 0.57 0.51 0.42 0.42 0.37 0.36 0.48 0.48 0.56 0.51 0.51 0.40 0.49 0.81 0.81 0.80 0.74 0.79 0.79 0.73 0.65 0.57 0.59 0.59 0.55 0.53 0.53 0.47 0.44 0.38 0.38 0.36 0.34 0.31 0.31 0.29 0.27 0.22 0.20 0.20 0.17 0.15 0.14 0.14 0.11 0.10 0.08 0.08 0.07 0.06 0.06 0.04 0.03 0.02 0.02 0.01
0.27 0.31 0.31 0.33 0.33 0.33 0.37 0.40 0.42 0.42 0.44 0.42 0.46 0.46 0.47 0.48 0.51 0.51 0.44 0.41 0.41 0.36 0.36 0.39 0.39 0.45 0.36 0.40 0.50 0.50 0.55 0.50 0.45 0.45 0.39 0.42 0.48 0.48 0.60 0.46 0.46 0.37 0.49 0.73 0.73 0.75 0.69 0.76 0.76 0.81 0.71 0.60 0.56 0.56 0.57 0.54 0.54 0.53 0.47 0.41 0.41 0.36 0.33 0.29 0.29 0.27 0.26 0.22 0.21 0.21 0.17 0.16 0.14 0.14 0.11 0.10 0.07 0.07 0.06 0.05 0.05 0.03 0.02 0.02 0.02 0.01
0.23 0.27 0.29 0.31 0.31 0.33 0.36 0.38 0.39 0.39 0.40 0.38 0.42 0.42 0.45 0.44 0.48 0.48 0.51 0.43 0.43 0.40 0.37 0.46 0.46 0.44 0.37 0.41 0.50 0.50 0.55 0.51 0.47 0.47 0.39 0.49 0.53 0.53 0.58 0.42 0.42 0.37 0.57 0.72 0.72 0.82 0.79 0.66 0.66 0.70 0.65 0.59 0.55 0.55 0.54 0.49 0.49 0.50 0.48 0.39 0.39 0.34 0.30 0.26 0.26 0.24 0.23 0.20 0.18 0.18 0.15 0.14 0.13 0.13 0.10 0.09 0.07 0.07 0.05 0.04 0.04 0.02 0.02 0.01 0.01 0.01
0.22 0.25 0.29 0.30 0.30 0.35 0.36 0.38 0.39 0.39 0.37 0.37 0.38 0.38 0.42 0.43 0.47 0.47 0.54 0.50 0.50 0.43 0.49 0.49 0.49 0.44 0.37 0.44 0.57 0.57 0.51 0.50 0.46 0.46 0.44 0.39 0.49 0.49 0.61 0.49 0.49 0.40 0.44 0.49 0.49 0.66 0.69 0.54 0.54 0.49 0.54 0.56 0.53 0.53 0.49 0.43 0.43 0.43 0.44 0.37 0.37 0.33 0.28 0.24 0.24 0.22 0.21 0.18 0.16 0.16 0.14 0.13 0.12 0.12 0.09 0.08 0.08 0.08 0.06 0.04 0.04 0.03 0.02 0.01 0.01 0.01
0.16 0.16 0.15 0.18 0.18 0.18 0.22 0.29 0.36 0.36 0.34 0.35 0.37 0.37 0.38 0.35 0.35 0.35 0.40 0.45 0.45 0.47 0.48 0.47 0.47 0.41 0.44 0.33 0.31 0.31 0.37 0.34 0.32 0.32 0.37 0.56 0.69 0.69 0.56 0.47 0.47 0.57 0.50 0.37 0.37 0.26 0.39 0.40 0.40 0.40 0.43 0.52 0.59 0.59 0.50 0.40 0.40 0.37 0.36 0.32 0.32 0.30 0.28 0.23 0.23 0.23 0.23 0.21 0.17 0.17 0.15 0.14 0.12 0.12 0.10 0.09 0.07 0.07 0.05 0.03 0.03 0.03 0.02 0.02 0.02 0.01
0.11 0.15 0.15 0.16 0.16 0.15 0.18 0.25 0.30 0.30 0.27 0.31 0.32 0.32 0.35 0.33 0.33 0.33 0.34 0.37 0.37 0.38 0.42 0.48 0.48 0.54 0.55 0.55 0.46 0.46 0.56 0.46 0.39 0.39 0.34 0.38 0.60 0.60 0.71 0.58 0.58 0.53 0.52 0.40 0.40 0.30 0.38 0.54 0.54 0.46 0.40 0.52 0.58 0.58 0.49 0.40 0.40 0.35 0.33 0.29 0.29 0.29 0.28 0.24 0.24 0.22 0.22 0.21 0.19 0.19 0.17 0.15 0.14 0.14 0.12 0.10 0.08 0.08 0.06 0.04 0.04 0.03 0.03 0.03 0.03 0.02
0.10 0.13 0.16 0.15 0.15 0.14 0.17 0.21 0.24 0.24 0.22 0.26 0.29 0.29 0.31 0.30 0.32 0.32 0.33 0.34 0.34 0.33 0.36 0.44 0.44 0.53 0.51 0.55 0.57 0.57 0.64 0.55 0.42 0.42 0.37 0.41 0.62 0.62 0.66 0.52 0.52 0.51 0.62 0.51 0.51 0.49 0.44 0.53 0.53 0.60 0.54 0.46 0.51 0.51 0.52 0.48 0.48 0.37 0.32 0.27 0.27 0.27 0.26 0.22 0.22 0.20 0.20 0.19 0.18 0.18 0.17 0.16 0.14 0.14 0.11 0.09 0.07 0.07 0.05 0.04 0.04 0.03 0.03 0.03 0.03 0.02
0.11 0.10 0.11 0.14 0.14 0.14 0.15 0.16 0.20 0.20 0.20 0.23 0.27 0.27 0.28 0.25 0.28 0.28 0.30 0.32 0.32 0.31 0.34 0.36 0.36 0.43 0.41 0.47 0.55 0.55 0.53 0.55 0.47 0.47 0.34 0.43 0.61 0.61 0.64 0.46 0.46 0.55 0.59 0.53 0.53 0.55 0.54 0.53 0.53 0.49 0.47 0.51 0.44 0.44 0.45 0.43 0.43 0.34 0.31 0.28 0.28 0.25 0.23 0.20 0.20 0.18 0.18 0.18 0.18 0.18 0.17 0.14 0.13 0.13 0.09 0.08 0.06 0.06 0.05 0.04 0.04 0.04 0.04 0.03 0.03 0.02
0.10 0.10 0.10 0.12 0.12 0.13 0.14 0.14 0.16 0.16 0.16 0.17 0.20 0.20 0.23 0.21 0.22 0.22 0.24 0.26 0.26 0.25 0.28 0.31 0.31 0.36 0.34 0.36 0.39 0.39 0.46 0.49 0.43 0.43 0.38 0.51 0.58 0.58 0.53 0.46 0.46 0.48 0.48 0.53 0.53 0.53 0.53 0.56 0.56 0.48 0.45 0.45 0.39 0.39 0.39 0.35 0.35 0.31 0.34 0.34 0.34 0.29 0.22 0.19 0.19 0.18 0.18 0.17 0.17 0.17 0.16 0.12 0.11 0.11 0.11 0.07 0.06 0.06 0.04 0.04 0.04 0.04 0.03 0.03 0.03 0.01
0.09 0.09 0.09 0.10 0.10 0.09 0.13 0.15 0.15 0.15 0.14 0.16 0.18 0.18 0.20 0.19 0.20 0.20 0.22 0.24 0.24 0.23 0.25 0.28 0.28 0.31 0.32 0.34 0.36 0.36 0.39 0.43 0.39 0.39 0.39 0.48 0.52 0.52 0.49 0.46 0.46 0.45 0.39 0.36 0.36 0.45 0.47 0.49 0.49 0.51 0.51 0.43 0.31 0.31 0.34 0.31 0.31 0.31 0.34 0.35 0.35 0.23 0.20 0.19 0.19 0.17 0.17 0.15 0.14 0.14 0.13 0.09 0.09 0.09 0.09 0.06 0.05 0.05 0.04 0.04 0.04 0.04 0.03 0.03 0.03 0.03
0.08 0.09 0.09 0.08 0.08 0.07 0.10 0.14 0.15 0.15 0.14 0.15 0.17 0.17 0.18 0.17 0.18 0.18 0.20 0.21 0.21 0.20 0.23 0.26 0.26 0.29 0.28 0.32 0.34 0.34 0.36 0.37 0.35 0.35 0.40 0.43 0.45 0.45 0.44 0.47 0.47 0.41 0.32 0.32 0.32 0.36 0.39 0.45 0.45 0.40 0.38 0.31 0.27 0.27 0.28 0.31 0.31 0.27 0.28 0.28 0.28 0.18 0.19 0.18 0.18 0.16 0.15 0.13 0.11 0.11 0.11 0.09 0.08 0.08 0.07 0.06 0.05 0.05 0.04 0.04 0.04 0.04 0.03 0.03 0.03 0.03
0.04 0.06 0.09 0.09 0.09 0.07 0.06 0.12 0.15 0.15 0.15 0.12 0.14 0.14 0.16 0.15 0.15 0.15 0.17 0.18 0.18 0.17 0.19 0.24 0.24 0.26 0.27 0.28 0.31 0.31 0.32 0.33 0.36 0.36 0.41 0.37 0.38 0.38 0.42 0.39 0.39 0.36 0.31 0.31 0.31 0.34 0.33 0.35 0.35 0.28 0.28 0.29 0.30 0.30 0.32 0.32 0.32 0.26 0.25 0.24 0.24 0.25 0.22 0.20 0.20 0.16 0.14 0.12 0.11 0.11 0.10 0.08 0.07 0.07 0.06 0.05 0.05 0.05 0.03 0.03 0.03 0.03 0.03 0.04 0.04 0.03
0.03 0.05 0.07 0.06 0.06 0.06 0.05 0.06 0.09 0.09 0.12 0.13 0.11 0.11 0.12 0.13 0.15 0.15 0.16 0.15 0.15 0.15 0.15 0.17 0.17 0.19 0.18 0.21 0.25 0.25 0.26 0.29 0.31 0.31 0.33 0.31 0.33 0.33 0.35 0.31 0.31 0.31 0.32 0.26 0.26 0.29 0.32 0.31 0.31 0.28 0.25 0.26 0.25 0.25 0.31 0.30 0.30 0.23 0.24 0.26 0.26 0.21 0.21 0.19 0.19 0.12 0.13 0.10 0.09 0.09 0.09 0.07 0.06 0.06 0.05 0.04 0.04 0.04 0.02 0.02 0.02 0.02 0.01 0.02 0.02 0.03
0.03 0.04 0.05 0.05 0.05 0.05 0.05 0.05 0.07 0.07 0.09 0.12 0.13 0.13 0.12 0.14 0.17 0.17 0.17 0.16 0.16 0.16 0.16 0.16 0.16 0.17 0.19 0.20 0.22 0.22 0.24 0.26 0.29 0.29 0.30 0.29 0.31 0.31 0.31 0.30 0.30 0.30 0.28 0.25 0.25 0.27 0.27 0.29 0.29 0.26 0.26 0.23 0.24 0.24 0.25 0.25 0.25 0.20 0.20 0.21 0.21 0.14 0.15 0.13 0.13 0.11 0.11 0.09 0.08 0.08 0.08 0.06 0.06 0.06 0.05 0.03 0.03 0.03 0.02 0.01 0.01 0.01 0.01 0.01 0.01 0.02
0.02 0.03 0.04 0.03 0.03 0.05 0.05 0.05 0.06 0.06 0.08 0.12 0.15 0.15 0.13 0.15 0.16 0.16 0.16 0.17 0.17 0.15 0.16 0.17 0.17 0.17 0.19 0.20 0.21 0.21 0.21 0.22 0.25 0.25 0.27 0.25 0.27 0.27 0.28 0.30 0.30 0.29 0.26 0.25 0.25 0.26 0.24 0.24 0.24 0.21 0.21 0.22 0.20 0.20 0.23 0.22 0.22 0.20 0.17 0.15 0.15 0.13 0.13 0.11 0.11 0.11 0.10 0.09 0.08 0.08 0.07 0.05 0.05 0.05 0.04 0.02 0.02 0.02 0.01 0.01 0.01 0.01 0.01 0.01 0.01 0.01
0.02 0.02 0.03 0.02 0.02 0.04 0.06 0.07 0.07 0.07 0.09 0.11 0.13 0.13 0.14 0.13 0.13 0.13 0.14 0.15 0.15 0.14 0.14 0.14 0.14 0.13 0.12 0.14 0.18 0.18 0.16 0.17 0.20 0.20 0.23 0.20 0.22 0.22 0.23 0.24 0.24 0.27 0.26 0.24 0.24 0.23 0.23 0.21 0.21 0.17 0.17 0.18 0.16 0.16 0.17 0.21 0.21 0.17 0.14 0.12 0.12 0.14 0.15 0.12 0.12 0.10 0.08 0.08 0.07 0.07 0.06 0.04 0.03 0.03 0.03 0.02 0.01 0.01 0.01 0.01 0.01 0.00 0.00 0.00 0.00 0.00
0.02 0.02 0.02 0.01 0.01 0.02 0.03 0.06 0.07 0.07 0.08 0.09 0.10 0.10 0.12 0.10 0.10 0.10 0.12 0.13 0.13 0.14 0.14 0.11 0.11 0.10 0.11 0.12 0.15 0.15 0.14 0.15 0.16 0.16 0.18 0.17 0.19 0.19 0.21 0.21 0.21 0.23 0.22 0.22 0.22 0.20 0.21 0.18 0.18 0.15 0.18 0.18 0.15 0.15 0.16 0.18 0.18 0.12 0.12 0.12 0.12 0.09 0.09 0.09 0.09 0.08 0.07 0.06 0.06 0.06 0.05 0.03 0.03 0.03 0.02 0.02 0.01 0.01 0.01 0.01 0.01 0.00 0.00 0.00 0.00 0.00
0.01 0.01 0.01 0.02 0.02 0.02 0.04 0.06 0.06 0.06 0.07 0.08 0.08 0.08 0.10 0.08 0.08 0.08 0.11 0.14 0.14 0.14 0.12 0.10 0.10 0.10 0.10 0.11 0.14 0.14 0.12 0.13 0.14 0.14 0.15 0.15 0.16 0.16 0.18 0.18 0.18 0.20 0.20 0.19 0.19 0.17 0.17 0.15 0.15 0.16 0.16 0.17 0.12 0.12 0.14 0.15 0.15 0.10 0.09 0.10 0.10 0.09 0.07 0.07 0.07 0.07 0.06 0.05 0.04 0.04 0.03 0.03 0.02 0.02 0.02 0.02 0.01 0.01 0.01 0.00 0.00 0.00 0.00 0.00 0.00 0.00
0.01 0.01 0.01 0.02 0.02 0.03 0.04 0.05 0.05 0.05 0.06 0.06 0.07 0.07 0.08 0.06 0.07 0.07 0.10 0.13 0.13 0.11 0.10 0.09 0.09 0.10 0.09 0.11 0.13 0.13 0.10 0.11 0.12 0.12 0.12 0.12 0.12 0.12 0.13 0.11 0.11 0.13 0.16 0.17 0.17 0.15 0.15 0.13 0.13 0.13 0.15 0.13 0.11 0.11 0.11 0.11 0.11 0.08 0.08 0.09 0.09 0.07 0.07 0.08 0.08 0.05 0.04 0.04 0.02 0.02 0.02 0.02 0.02 0.02 0.02 0.02 0.01 0.01 0.01 0.00 0.00 0.00 0.00 0.00 0.00 0.00
0.01 0.01 0.02 0.03 0.03 0.03 0.03 0.03 0.04 0.04 0.05 0.06 0.07 0.07 0.07 0.06 0.06 0.06 0.06 0.08 0.08 0.08 0.09 0.09 0.09 0.07 0.06 0.07 0.10 0.10 0.07 0.09 0.10 0.10 0.12 0.10 0.10 0.10 0.11 0.09 0.09 0.10 0.11 0.13 0.13 0.12 0.13 0.12 0.12 0.13 0.12 0.11 0.10 0.10 0.10 0.09 0.09 0.06 0.07 0.07 0.07 0.06 0.05 0.06 0.06 0.04 0.03 0.03 0.02 0.02 0.02 0.02 0.03 0.03 0.02 0.01 0.01 0.01 0.00 0.00 0.00 0.00 0.00 0.00 0.00 0.00
0.01 0.01 0.01 0.02 0.02 0.03 0.03 0.03 0.03 0.03 0.03 0.04 0.05 0.05 0.06 0.05 0.05 0.05 0.06 0.07 0.07 0.06 0.07 0.08 0.08 0.06 0.06 0.07 0.07 0.07 0.05 0.07 0.09 0.09 0.10 0.08 0.08 0.08 0.09 0.08 0.08 0.08 0.08 0.10 0.10 0.09 0.10 0.12 0.12 0.10 0.10 0.09 0.07 0.07 0.07 0.08 0.08 0.05 0.05 0.06 0.06 0.04 0.04 0.04 0.04 0.02 0.02 0.02 0.01 0.01 0.01 0.02 0.02 0.02 0.02 0.01 0.01 0.01 0.01 0.00 0.00 0.00 0.00 0.00 0.00 0.00
0.00 0.01 0.01 0.02 0.02 0.02 0.03 0.03 0.02 0.02 0.03 0.03 0.04 0.04 0.04 0.04 0.04 0.04 0.05 0.06 0.06 0.05 0.06 0.06 0.06 0.06 0.06 0.06 0.05 0.05 0.05 0.06 0.07 0.07 0.08 0.07 0.07 0.07 0.07 0.07 0.07 0.06 0.07 0.07 0.07 0.07 0.07 0.08 0.08 0.05 0.06 0.07 0.05 0.05 0.05 0.05 0.05 0.03 0.04 0.04 0.04 0.02 0.02 0.02 0.02 0.01 0.01 0.01 0.00 0.00 0.00 0.01 0.01 0.01 0.01 0.01 0.01 0.01 0.01 0.00 0.00 0.00 0.00 0.00 0.00 0.00
0.00 0.01 0.01 0.01 0.01 0.02 0.02 0.02 0.02 0.02 0.02 0.03 0.04 0.04 0.03 0.03 0.04 0.04 0.04 0.04 0.04 0.04 0.05 0.06 0.06 0.06 0.06 0.05 0.05 0.05 0.04 0.04 0.05 0.05 0.06 0.05 0.06 0.06 0.07 0.05 0.05 0.06 0.06 0.06 0.06 0.06 0.06 0.05 0.05 0.03 0.03 0.04 0.03 0.03 0.04 0.04 0.04 0.02 0.02 0.02 0.02 0.01 0.01 0.01 0.01 0.01 0.00 0.00 0.00 0.00 0.00 0.00 0.00 0.00 0.01 0.01 0.01 0.01 0.01 0.01 0.01 0.00 0.00 0.00 0.00 0.00
0.01 0.01 0.01 0.01 0.01 0.01 0.02 0.02 0.02 0.02 0.02 0.02 0.03 0.03 0.02 0.03 0.03 0.03 0.03 0.02 0.02 0.03 0.03 0.04 0.04 0.05 0.05 0.04 0.04 0.04 0.03 0.04 0.05 0.05 0.05 0.04 0.05 0.05 0.05 0.05 0.05 0.05 0.05 0.06 0.06 0.05 0.06 0.05 0.05 0.03 0.03 0.02 0.01 0.01 0.02 0.02 0.02 0.02 0.02 0.01 0.01 0.01 0.01 0.01 0.01 0.00 0.00 0.00 0.00 0.00 0.00 0.00 0.01 0.01 0.00 0.01 0.01 0.01 0.01 0.01 0.01 0.00 0.00 0.00 0.00 0.00